GW5604 Weather Reports


time (UTC)temp
F
wind
direction
speed
knots
gust
knots
rain 1hr
in
rain 24hr
in
rain mn
in
humidity
%
barometer
mb
20260508165037 55 12 4.3 5.2 0.00 0.00 0.00 40 1017.3
20260508164533 55 159 0.9 0.9 0.00 0.00 0.00 42 1017.5
20260508164031 56 195 1.7 1.7 0.00 0.00 0.00 42 1017.3
20260508163528 56 156 1.7 1.7 0.00 0.00 0.00 38 1017.6
20260508163024 55 150 2.6 2.6 0.00 0.00 0.00 41 1017.3
20260508162521 55 12 2.6 2.6 0.00 0.00 0.00 38 1017.3
20260508162019 55 53 3.5 5.2 0.00 0.00 0.00 39 1017.5
20260508161515 53 118 1.7 2.6 0.00 0.00 0.00 41 1017.4
20260508161013 53 112 2.6 2.6 0.00 0.00 0.00 40 1017.7
20260508160511 54 281 4.3 5.2 0.00 0.00 0.00 39 1017.6
20260508160008 54 125 2.6 2.6 0.00 0.00 0.00 43 1017.6
20260508155504 54 118 1.7 1.7 0.00 0.00 0.00 41 1017.7
20260508155001 53 168 1.7 1.7 0.00 0.00 0.00 42 1017.7
20260508154459 53 203 3.5 5.2 0.00 0.00 0.00 44 1017.9
20260508153955 54 322 2.6 4.3 0.00 0.00 0.00 45 1018.0
20260508153452 53 306 2.6 4.3 0.00 0.00 0.00 45 1018.0
20260508152948 53 275 2.6 4.3 0.00 0.00 0.00 44 1017.6
20260508152445 53 27 2.6 2.6 0.00 0.00 0.00 47 1017.9
20260508151941 54 205 1.7 1.7 0.00 0.00 0.00 49 1018.0
20260508151438 53 89 0.9 1.7 0.00 0.00 0.00 49 1017.7
20260508150935 53 266 2.6 4.3 0.00 0.00 0.00 50 1018.0
20260508150431 53 309 2.6 2.6 0.00 0.00 0.00 50 1018.0
20260508145927 53 139 1.7 1.7 0.00 0.00 0.00 48 1017.9
20260508145424 52 199 1.7 1.7 0.00 0.00 0.00 54 1017.9
20260508144921 53 24 4.3 6.1 0.00 0.00 0.00 48 1017.9
20260508144419 52 149 0.9 0.9 0.00 0.00 0.00 50 1017.6
20260508143916 53 9 3.5 4.3 0.00 0.00 0.00 48 1017.6
20260508143413 51 132 0.9 0.9 0.00 0.00 0.00 52 1017.7
20260508142910 53 276 1.7 2.6 0.00 0.00 0.00 51 1018.0
20260508142407 53 196 0.9 1.7 0.00 0.00 0.00 49 1017.7
20260508141903 51 151 0.9 0.9 0.00 0.00 0.00 46 1017.9
20260508141400 51 160 2.6 2.6 0.00 0.00 0.00 44 1017.7
20260508140858 51 198 1.7 1.7 0.00 0.00 0.00 42 1017.9
20260508140355 51 176 1.7 1.7 0.00 0.00 0.00 39 1017.7
20260508135850 50 215 0.9 1.7 0.00 0.00 0.00 40 1017.9
20260508135347 50 165 1.7 2.6 0.00 0.00 0.00 40 1017.9
20260508134843 50 137 2.6 4.3 0.00 0.00 0.00 44 1017.7
20260508134340 50 175 1.7 1.7 0.00 0.00 0.00 41 1017.7
20260508133836 50 135 1.7 1.7 0.00 0.00 0.00 44 1017.4
20260508133335 51 150 0.9 0.9 0.00 0.00 0.00 43 1017.3
20260508132831 50 176 0.9 0.9 0.00 0.00 0.00 42 1017.6
20260508132329 48 169 0.0 0.9 0.00 0.00 0.00 44 1017.5
20260508131825 48 168 0.0 0.0 0.00 0.00 0.00 44 1017.3
20260508131321 48 136 2.6 2.6 0.00 0.00 0.00 50 1017.4
20260508130818 48 166 0.9 1.7 0.00 0.00 0.00 48 1017.4
20260508130315 47 164 0.9 0.9 0.00 0.00 0.00 49 1017.4
20260508125811 47 150 0.9 1.7 0.00 0.00 0.00 49 1017.3
20260508125307 46 152 0.9 1.7 0.00 0.00 0.00 49 1017.3
20260508124805 46 162 0.9 0.9 0.00 0.00 0.00 52 1017.4
20260508124302 46 159 0.9 0.9 0.00 0.00 0.00 56 1017.2
20260508123800 46 152 0.9 0.9 0.00 0.00 0.00 56 1017.3
20260508123258 45 158 0.9 0.9 0.00 0.00 0.00 57 1017.2
20260508122754 45 146 0.9 0.9 0.00 0.00 0.00 57 1017.1
20260508122251 45 160 0.0 0.9 0.00 0.00 0.00 58 1017.0
20260508121748 45 163 0.9 0.9 0.00 0.00 0.00 60 1017.1
20260508121247 45 154 0.9 0.9 0.00 0.00 0.00 60 1016.8
20260508120743 44 162 0.9 0.9 0.00 0.00 0.00 61 1016.8
20260508120242 44 151 0.9 0.9 0.00 0.00 0.00 61 1016.8
20260508115739 43 154 0.9 0.9 0.00 0.00 0.00 62 1016.7
20260508115237 42 107 1.7 1.7 0.00 0.00 0.00 64 1016.7
20260508114733 42 133 2.6 2.6 0.00 0.00 0.00 66 1016.4
20260508114230 42 134 1.7 1.7 0.00 0.00 0.00 64 1016.4
20260508113726 42 158 1.7 1.7 0.00 0.00 0.00 65 1016.5
20260508113225 42 158 0.9 0.9 0.00 0.00 0.00 64 1016.3
20260508112721 42 156 0.0 0.9 0.00 0.00 0.00 64 1016.4
20260508112218 42 154 1.7 2.6 0.00 0.00 0.00 64 1015.9
20260508111714 41 140 0.9 0.9 0.00 0.00 0.00 65 1015.9
20260508111212 41 97 3.5 5.2 0.00 0.00 0.00 66 1016.1
20260508110709 41 131 2.6 4.3 0.00 0.00 0.00 67 1015.9
20260508110206 40 147 3.5 5.2 0.00 0.00 0.00 69 1015.8
20260508105701 40 136 1.7 1.7 0.00 0.00 0.00 70 1015.8
20260508105158 40 153 2.6 2.6 0.00 0.00 0.00 71 1015.6
20260508104655 40 110 1.7 2.6 0.00 0.00 0.00 73 1015.7
20260508104152 40 134 3.5 6.1 0.00 0.00 0.00 73 1015.4
20260508103649 40 148 0.9 1.7 0.00 0.00 0.00 73 1015.4
20260508103146 40 151 2.6 4.3 0.00 0.00 0.00 73 1015.3
20260508102643 40 138 2.6 2.6 0.00 0.00 0.00 72 1015.4
20260508102141 40 152 0.9 0.9 0.00 0.00 0.00 72 1015.2
20260508101638 40 136 1.7 1.7 0.00 0.00 0.00 72 1014.9
20260508101136 40 117 2.6 2.6 0.00 0.00 0.00 71 1014.9
20260508100633 41 120 3.5 4.3 0.00 0.00 0.00 72 1014.9
20260508100131 41 108 3.5 5.2 0.00 0.00 0.00 72 1014.7
20260508095627 41 125 4.3 5.2 0.00 0.00 0.00 71 1014.8
20260508095124 41 137 3.5 6.1 0.00 0.00 0.00 72 1014.6
20260508094621 41 145 6.1 7.0 0.00 0.00 0.00 73 1014.4
20260508094118 41 151 4.3 5.2 0.00 0.00 0.00 75 1014.3
20260508093615 41 134 6.1 9.6 0.00 0.00 0.00 75 1014.5
20260508093113 41 160 4.3 7.0 0.00 0.00 0.00 74 1014.3
20260508092610 41 91 5.2 7.0 0.00 0.00 0.00 75 1014.3
20260508092109 40 146 6.1 12.2 0.00 0.00 0.00 77 1014.4
20260508091605 40 83 5.2 7.8 0.00 0.00 0.00 77 1014.5
20260508091102 40 109 5.2 6.1 0.00 0.00 0.00 78 1014.4
20260508090600 40 93 4.3 6.1 0.00 0.00 0.00 79 1014.6
20260508090056 41 83 5.2 6.1 0.00 0.00 0.00 78 1014.4
20260508085553 41 102 5.2 7.0 0.00 0.00 0.00 76 1014.2
20260508085051 41 98 5.2 6.1 0.00 0.00 0.00 77 1013.8
20260508084547 41 107 7.0 8.7 0.00 0.00 0.00 76 1014.4
20260508084044 41 88 6.1 7.8 0.00 0.00 0.00 76 1014.0
20260508083541 41 128 4.3 5.2 0.00 0.00 0.00 76 1013.8
20260508083038 41 134 6.1 7.8 0.00 0.00 0.00 76 1014.3
20260508082534 41 133 4.3 6.1 0.00 0.00 0.00 75 1014.3
20260508082032 41 127 5.2 9.6 0.00 0.00 0.00 76 1014.0
20260508081529 41 126 5.2 7.0 0.00 0.00 0.00 76 1014.2
20260508081025 41 85 6.1 7.0 0.00 0.00 0.00 76 1014.2
20260508080523 41 177 5.2 7.8 0.00 0.00 0.00 77 1014.2
20260508080020 41 124 7.8 11.3 0.00 0.00 0.00 77 1014.2
20260508075516 41 115 6.1 7.0 0.00 0.00 0.00 78 1013.9
20260508075014 41 82 5.2 7.0 0.00 0.00 0.00 80 1014.0
20260508074512 41 112 6.1 9.6 0.00 0.00 0.00 80 1013.9
20260508074008 41 107 6.1 7.8 0.00 0.00 0.00 81 1013.7
20260508073506 41 92 8.7 13.0 0.00 0.00 0.00 81 1013.8
20260508073003 41 134 7.0 9.6 0.00 0.00 0.00 83 1013.7
20260508072458 41 100 10.4 13.9 0.00 0.00 0.00 84 1013.6
20260508071956 41 166 8.7 9.6 0.00 0.00 0.00 86 1013.9
20260508071454 41 140 6.1 8.7 0.00 0.00 0.00 87 1013.4
20260508070951 41 113 7.0 13.0 0.00 0.00 0.00 89 1013.5
20260508070449 41 137 8.7 11.3 0.00 0.00 0.00 91 1013.8
20260508065947 41 131 7.8 9.6 0.00 0.00 0.00 92 1014.0
20260508065445 41 81 7.0 9.6 0.00 0.00 0.00 93 1013.8
20260508064943 42 123 7.0 9.6 0.00 0.00 0.00 94 1013.8
20260508064440 42 132 7.8 11.3 0.00 0.00 0.00 93 1013.8
20260508063937 42 123 8.7 13.0 0.00 0.00 0.00 93 1013.6
20260508063434 42 109 7.0 13.9 0.00 0.00 0.00 94 1013.7
20260508062932 42 138 7.8 8.7 0.00 0.00 0.00 94 1013.5
20260508062429 42 112 7.0 11.3 0.00 0.00 0.00 96 1013.4
20260508061926 42 122 7.8 11.3 0.00 0.00 0.00 97 1013.6
20260508061424 42 41 7.0 9.6 0.00 0.00 0.00 97 1013.8
20260508060920 42 162 5.2 9.6 0.00 0.00 0.00 96 1013.5
20260508060417 42 231 8.7 13.0 0.00 0.00 0.00 96 1013.3
20260508055913 43 111 6.1 8.7 0.00 0.00 0.00 96 1013.7
20260508055410 43 115 8.7 13.0 0.00 0.00 0.00 95 1013.7
20260508054906 43 113 8.7 12.2 0.00 0.00 0.00 94 1013.8
20260508054404 43 137 8.7 8.7 0.00 0.00 0.00 94 1013.5
20260508053900 43 88 11.3 20.0 0.00 0.00 0.00 94 1013.6
20260508053358 43 140 8.7 9.6 0.00 0.00 0.00 94 1013.7
20260508052855 43 82 12.2 15.6 0.00 0.00 0.00 94 1013.6
20260508052353 43 123 8.7 11.3 0.00 0.00 0.00 94 1013.8
20260508051849 44 152 7.0 8.7 0.00 0.00 0.00 94 1013.8
20260508051344 44 129 7.8 8.7 0.00 0.00 0.00 93 1013.9
20260508050841 43 98 10.4 13.0 0.00 0.00 0.00 94 1013.7
20260508050338 44 83 8.7 9.6 0.00 0.00 0.00 94 1013.5
20260508045833 44 89 9.6 12.2 0.00 0.00 0.00 93 1013.8
20260508045331 44 80 10.4 13.0 0.00 0.00 0.00 93 1013.9
20260508044829 44 144 7.0 7.8 0.00 0.00 0.00 93 1013.9
20260508044325 44 155 8.7 11.3 0.00 0.00 0.00 94 1013.7
20260508043821 44 98 7.8 9.6 0.00 0.00 0.00 93 1013.6
20260508043319 44 137 7.8 8.7 0.00 0.00 0.00 94 1013.7
20260508042815 44 116 10.4 13.9 0.00 0.00 0.00 94 1013.6
20260508042313 44 171 7.8 9.6 0.00 0.00 0.00 92 1013.8
20260508041809 44 129 7.8 9.6 0.00 0.00 0.00 92 1013.5
20260508041306 44 117 7.8 11.3 0.00 0.00 0.00 94 1013.3
20260508040802 44 157 7.8 7.8 0.00 0.00 0.00 93 1013.5
20260508040300 44 105 7.8 11.3 0.00 0.00 0.00 94 1013.5
20260508035757 43 91 7.8 8.7 0.00 0.04 0.04 95 1013.8
20260508035254 44 144 7.0 7.8 0.00 0.04 0.04 96 1013.8
20260508034751 44 82 7.8 11.3 0.00 0.04 0.04 97 1014.0
20260508034248 43 106 4.3 6.1 0.00 0.04 0.04 97 1014.2
20260508033745 43 162 7.0 8.7 0.00 0.04 0.04 97 1014.0
20260508033243 44 106 6.1 7.8 0.00 0.04 0.04 97 1014.5
20260508032741 44 151 6.1 12.2 0.00 0.04 0.04 96 1014.2
20260508032237 44 113 6.1 8.7 0.00 0.04 0.04 96 1014.2
20260508031734 44 113 7.0 11.3 0.00 0.04 0.04 96 1014.3
20260508031231 44 73 9.6 12.2 0.00 0.04 0.04 96 1013.9
20260508030727 43 110 7.8 12.2 0.00 0.04 0.04 97 1013.8
20260508030225 43 137 7.0 7.8 0.00 0.04 0.04 97 1014.0
20260508025721 43 106 6.1 7.8 0.00 0.04 0.04 97 1014.0
20260508025218 43 149 5.2 6.1 0.00 0.04 0.04 97 1014.2
20260508024714 43 97 5.2 6.1 0.00 0.04 0.04 96 1013.9
20260508024211 43 85 4.3 6.1 0.00 0.04 0.04 96 1014.3
20260508023707 43 131 4.3 6.1 0.00 0.04 0.04 96 1014.0
20260508023206 43 115 5.2 7.8 0.00 0.04 0.04 96 1014.3
20260508022701 44 148 4.3 6.1 0.00 0.04 0.04 95 1014.0
20260508022158 44 91 4.3 7.0 0.00 0.04 0.04 95 1014.0
20260508021654 44 107 4.3 6.1 0.00 0.04 0.04 95 1013.8
20260508021149 44 82 5.2 6.1 0.00 0.04 0.04 94 1013.8
20260508020648 44 96 6.1 7.0 0.00 0.04 0.04 94 1013.8
20260508020145 44 115 6.1 9.6 0.00 0.04 0.04 95 1013.7
20260508015642 44 95 6.1 7.8 0.00 0.04 0.04 94 1013.6
20260508015139 44 124 6.1 7.0 0.00 0.04 0.04 94 1013.6
20260508014635 44 144 6.1 11.3 0.00 0.04 0.04 93 1013.5
20260508014132 44 92 7.0 8.7 0.00 0.04 0.04 92 1013.5
20260508013628 44 121 5.2 8.7 0.00 0.04 0.04 92 1013.5
20260508013125 44 111 9.6 11.3 0.00 0.04 0.04 92 1013.0
20260508012623 44 110 6.1 9.6 0.00 0.04 0.04 92 1013.1
20260508012119 44 148 5.2 7.8 0.00 0.04 0.04 92 1013.0
20260508011618 44 63 7.0 7.8 0.00 0.04 0.04 91 1012.9
20260508011115 44 98 7.8 13.0 0.00 0.04 0.04 90 1012.7
20260508010611 44 159 5.2 7.0 0.00 0.04 0.04 90 1012.8
20260508010110 44 98 7.0 8.7 0.00 0.04 0.04 89 1013.0
20260508005606 44 113 8.7 13.0 0.00 0.04 0.04 91 1012.7
20260508005102 44 102 6.1 6.1 0.00 0.04 0.04 91 1012.8
20260508004558 44 123 6.1 7.8 0.00 0.04 0.04 92 1012.7
20260508004055 44 105 4.3 6.1 0.00 0.04 0.04 92 1012.6
20260508003552 44 108 5.2 7.0 0.00 0.04 0.04 92 1012.6
20260508003049 44 91 5.2 7.0 0.00 0.04 0.04 92 1012.7
20260508002545 44 89 7.0 8.7 0.00 0.04 0.04 93 1012.4
20260508002043 44 158 7.0 8.7 0.00 0.04 0.04 93 1012.4
20260508001538 44 106 6.1 7.0 0.00 0.04 0.04 92 1012.5
20260508001035 44 94 6.1 7.0 0.00 0.04 0.04 92 1012.5
20260508000531 44 129 7.8 11.3 0.00 0.04 0.04 92 1012.4
20260508000029 45 86 9.6 13.0 0.00 0.04 0.04 92 1012.1
20260507235525 45 72 9.6 13.0 0.00 0.04 0.04 91 1012.2
20260507235022 45 100 7.8 13.0 0.00 0.04 0.04 92 1012.1
20260507234518 45 124 8.7 12.2 0.00 0.04 0.04 91 1012.5
20260507234015 45 87 9.6 13.0 0.00 0.04 0.04 91 1012.6
20260507233512 45 116 7.0 9.6 0.00 0.04 0.04 90 1012.5
20260507233011 45 100 5.2 7.0 0.00 0.04 0.04 91 1012.4
20260507232507 46 103 9.6 14.8 0.00 0.04 0.04 90 1012.5
20260507232004 46 148 7.0 11.3 0.00 0.04 0.04 90 1012.5
20260507231500 46 97 6.1 9.6 0.00 0.04 0.04 90 1012.7
20260507230957 45 159 4.3 5.2 0.00 0.04 0.04 91 1012.7
20260507230454 46 100 6.1 9.6 0.00 0.04 0.04 91 1012.4
20260507225949 46 99 6.1 8.7 0.00 0.04 0.04 90 1012.7
20260507225446 46 98 9.6 14.8 0.00 0.04 0.04 91 1012.1
20260507224942 46 163 7.8 11.3 0.00 0.04 0.04 92 1012.5
20260507224438 45 102 6.1 8.7 0.00 0.04 0.04 93 1011.9
20260507223936 45 137 5.2 7.8 0.00 0.04 0.04 95 1012.0
20260507223431 45 125 5.2 8.7 0.00 0.04 0.04 96 1012.0
20260507222928 45 74 6.1 8.7 0.00 0.04 0.04 95 1011.9
20260507222425 46 96 9.6 14.8 0.00 0.04 0.04 94 1012.0
20260507221921 46 79 6.1 8.7 0.00 0.04 0.04 92 1012.0
20260507221418 46 78 6.1 7.0 0.00 0.04 0.04 93 1011.8
20260507220914 46 134 9.6 13.9 0.00 0.04 0.04 92 1011.7
20260507220412 46 153 7.8 13.9 0.00 0.04 0.04 92 1011.8
20260507215908 46 126 4.3 6.1 0.00 0.04 0.04 92 1011.6
20260507215405 46 107 5.2 7.8 0.00 0.04 0.04 93 1011.5
20260507214902 46 147 7.8 11.3 0.00 0.04 0.04 93 1011.8
20260507214400 47 99 3.5 4.3 0.00 0.04 0.04 92 1011.6
20260507213855 48 154 7.8 9.6 0.00 0.04 0.04 91 1011.7
20260507213352 50 131 5.2 6.1 0.00 0.04 0.04 90 1011.3
20260507212849 48 111 4.3 8.7 0.00 0.04 0.04 91 1011.2
20260507212345 48 118 6.1 12.2 0.00 0.04 0.04 92 1011.3
20260507211842 48 77 6.1 9.6 0.00 0.04 0.04 92 1011.0
20260507211338 48 126 5.2 8.7 0.00 0.04 0.04 92 1011.1
20260507210835 49 73 7.8 11.3 0.00 0.04 0.04 91 1011.2
20260507210332 49 81 5.2 7.0 0.00 0.04 0.04 91 1010.8
20260507205829 49 107 7.8 14.8 0.00 0.04 0.04 90 1010.7
20260507205326 49 132 5.2 7.8 0.00 0.04 0.04 90 1010.7
20260507204822 50 68 6.1 8.7 0.00 0.04 0.04 89 1010.6
20260507204319 50 107 10.4 17.4 0.00 0.04 0.04 88 1010.7
20260507203817 50 75 9.6 13.9 0.00 0.04 0.04 88 1010.3
20260507203315 50 87 6.1 7.0 0.00 0.04 0.04 87 1010.5
20260507202811 51 64 7.8 14.8 0.00 0.04 0.04 87 1010.7
20260507202307 51 89 4.3 6.1 0.00 0.04 0.04 86 1010.6
20260507201802 51 94 9.6 13.9 0.00 0.04 0.04 86 1010.2
20260507201258 51 55 5.2 7.8 0.00 0.04 0.04 87 1010.3
20260507200755 51 93 6.1 7.8 0.00 0.04 0.04 87 1010.5
20260507200251 51 61 5.2 7.0 0.00 0.04 0.04 88 1010.5
20260507195747 52 82 5.2 8.7 0.00 0.04 0.04 87 1010.6
20260507195245 53 114 4.3 11.3 0.00 0.04 0.04 86 1010.8
20260507194742 53 108 4.3 6.1 0.00 0.04 0.04 86 1010.7
20260507194238 53 122 3.5 5.2 0.00 0.04 0.04 88 1010.7
20260507193734 53 123 7.0 8.7 0.00 0.04 0.04 86 1010.7
20260507193231 53 90 7.0 9.6 0.00 0.04 0.04 87 1010.8
20260507192727 53 156 7.0 7.8 0.00 0.04 0.04 86 1011.0
20260507192224 55 110 5.2 7.0 0.00 0.04 0.04 83 1011.1
20260507191720 55 135 2.6 2.6 0.00 0.04 0.04 84 1010.8
20260507191218 56 55 7.8 12.2 0.00 0.04 0.04 82 1011.0
20260507190714 56 102 4.3 6.1 0.00 0.04 0.04 83 1011.1
20260507190213 56 112 4.3 5.2 0.00 0.04 0.04 84 1011.2
20260507185711 55 164 5.2 6.1 0.00 0.04 0.04 84 1011.2
20260507185208 56 179 7.8 12.2 0.00 0.04 0.04 83 1011.2
20260507184705 56 128 7.8 12.2 0.00 0.04 0.04 83 1011.3
20260507184203 56 118 3.5 4.3 0.00 0.04 0.04 83 1011.2
20260507183659 55 105 4.3 7.0 0.00 0.04 0.04 84 1011.3
20260507183156 55 176 7.0 11.3 0.00 0.04 0.04 84 1011.5
20260507182654 55 75 5.2 7.8 0.00 0.04 0.04 84 1011.6
20260507182149 55 134 6.1 8.7 0.00 0.04 0.04 84 1011.6
20260507181645 55 132 5.2 8.7 0.00 0.04 0.04 85 1011.3
20260507181142 55 120 7.8 8.7 0.00 0.04 0.04 86 1011.7
20260507180638 55 104 3.5 5.2 0.00 0.04 0.04 87 1011.6
20260507180136 55 87 5.2 7.0 0.00 0.04 0.04 88 1011.6
20260507175631 55 94 3.5 4.3 0.00 0.04 0.04 87 1011.1
20260507175129 55 147 7.0 8.7 0.00 0.04 0.04 87 1011.5
20260507174626 55 104 4.3 7.0 0.00 0.04 0.04 87 1011.3
20260507174124 56 117 2.6 4.3 0.00 0.04 0.04 88 1011.3
20260507173621 55 143 6.1 7.0 0.00 0.04 0.04 89 1011.2
20260507173118 55 117 3.5 4.3 0.00 0.04 0.04 89 1011.1
20260507172613 55 132 4.3 6.1 0.00 0.04 0.04 90 1011.1
20260507172111 57 142 3.5 7.0 0.00 0.04 0.04 88 1011.3
20260507171606 56 95 3.5 6.1 0.00 0.04 0.04 90 1011.2
20260507171103 56 40 2.6 6.1 0.00 0.04 0.04 90 1011.3
20260507170600 57 134 0.9 1.7 0.00 0.04 0.04 89 1011.3
20260507170057 56 129 2.6 2.6 0.00 0.04 0.04 89 1011.3
20260507165553 56 155 2.6 4.3 0.00 0.04 0.04 89 1011.2